This is the latest recevied weather packets stored in our database for station/object K1NOT-WX. If no packets are shown the sender has not sent any weather packets the latest 10 day(s).
| Time | Temp. | Humidity | Pressure | Rain* | Wind** | Luminosity | Snow |
|---|---|---|---|---|---|---|---|
| 1777765332 | 21.11° C | 53% | 1005.1 hPa | 0 mm | - | - | - |
| 1777764432 | 21.11° C | 54% | 1005.4 hPa | 0 mm | - | - | - |
| 1777763532 | 21.11° C | 55% | 1005.4 hPa | 0 mm | - | - | - |
| 1777762632 | 21.11° C | 56% | 1005.8 hPa | 0 mm | - | - | - |
| 1777761732 | 21.11° C | 55% | 1005.8 hPa | 0 mm | - | - | - |
| 1777760832 | 21.11° C | 53% | 1006.1 hPa | 0 mm | - | - | - |
| 1777759932 | 21.11° C | 50% | 1006.1 hPa | 0 mm | - | - | - |
| 1777759032 | 21.67° C | 48% | 1006.4 hPa | 0 mm | - | - | - |
| 1777758132 | 21.11° C | 49% | 1006.4 hPa | 0 mm | - | - | - |
| 1777757232 | 21.11° C | 53% | 1006.8 hPa | 0 mm | - | - | - |
| 1777756332 | 21.11° C | 55% | 1006.8 hPa | 0 mm | - | - | - |
| 1777755432 | 21.11° C | 57% | 1006.8 hPa | 0 mm | - | - | - |
| 1777754532 | 20° C | 60% | 1007.1 hPa | 0 mm | - | - | - |
| 1777753632 | 20.56° C | 61% | 1007.1 hPa | 0 mm | - | - | - |
| 1777752732 | 20° C | 62% | 1007.1 hPa | 0 mm | - | - | - |
| 1777751832 | 20° C | 63% | 1007.4 hPa | 0 mm | - | - | - |
| 1777750932 | 19.44° C | 64% | 1007.8 hPa | 0 mm | - | - | - |
| 1777750032 | 18.89° C | 66% | 1007.4 hPa | 0 mm | - | - | - |
| 1777749132 | 18.89° C | 66% | 1007.8 hPa | 0 mm | - | - | - |
| 1777748232 | 18.89° C | 68% | 1008.1 hPa | 0 mm | - | - | - |
| 1777747332 | 18.89° C | 68% | 1007.8 hPa | 0 mm | - | - | - |
| 1777746432 | 17.78° C | 69% | 1007.8 hPa | 0 mm | - | - | - |
| 1777745532 | 17.78° C | 69% | 1007.8 hPa | 0 mm | - | - | - |
| 1777744632 | 17.22° C | 71% | 1008.1 hPa | 0 mm | - | - | - |
| 1777743732 | 16.11° C | 74% | 1008.1 hPa | 0 mm | - | - | - |
* Rain latest hour (hover to see other rain measurements)
** Current wind speed in m/s (hover to see current wind gust speed)